Tracking 23731 objects as of 27-Sep-2021
HD Live streaming from Space Station
objects crossing your sky now

IUS DEB

Track IUS DEB now!
10-day predictions


NORAD ID: 43367
Int'l Code: 1999-040Q
Perigee: 714.4 km
Apogee: 9,587.1 km
Inclination: 28.2 °
Period: 205.1 minutes
Semi major axis: 11521 km
RCS: Unknown
Launch date: July 23, 1999
Source: United States (US)
Launch site: AIR FORCE EASTERN TEST RANGE (AFETR)

Note: This is SATELLITE DEBRIS
aabbcc
Your satellite tracking list
Your tracking list is empty




NASA's NSSDC Master Catalog

Two Line Element Set (TLE):
1 43367U 99040Q   21268.57628344 -.00001248  00000-0 -51552-2 0  9990
2 43367  28.1694  12.9754 3850374  30.5036 347.1838  7.01980580    91
Source of the keplerian elements: AFSPC